• In Russia
  • List of Countries
  • For 7 days
  • Water Temperature
  • Satellite Maps
  • Weather Map
  • Weather Widgets
  • user-avatar
    Login

    Hourly Weather Lezhe

    Today, 30 April, Sunday

    Time Temperature Precipitation Wind Pressure Humidity
    00:00 +13°C° 0 mm 3 mps 734 mmHg 70%
    01:00 +12°C° 0 mm 3 mps 734 mmHg 80%
    02:00 +12°C° 0.1 mm 3 mps 734 mmHg 81%
    03:00 +12°C° 0.1 mm 3 mps 734 mmHg 82%
    04:00 +12°C° 0.1 mm 3 mps 734 mmHg 83%
    05:00 +13°C° 0 mm 3 mps 734 mmHg 80%
    06:00 +14°C° 0 mm 3 mps 734 mmHg 77%
    07:00 +14°C° 0 mm 3 mps 734 mmHg 70%
    08:00 +17°C° 0.1 mm 3 mps 734 mmHg 64%
    09:00 +19°C° 0.1 mm 3 mps 734 mmHg 58%
    10:00 +21°C° 0.1 mm 3 mps 734 mmHg 52%
    11:00 +22°C° 0.3 mm 3 mps 734 mmHg 51%
    12:00 +24°C° 0.3 mm 3 mps 734 mmHg 49%
    13:00 +25°C° 0.3 mm 4 mps 733 mmHg 48%
    14:00 +24°C° 0.6 mm 3 mps 733 mmHg 52%
    15:00 +22°C° 0.6 mm 3 mps 733 mmHg 55%
    16:00 +22°C° 0.6 mm 3 mps 733 mmHg 59%
    17:00 +20°C° 0.5 mm 3 mps 733 mmHg 68%
    18:00 +18°C° 0.5 mm 3 mps 733 mmHg 77%
    19:00 +16°C° 0.5 mm 2 mps 733 mmHg 85%
    20:00 +16°C° 0.4 mm 2 mps 734 mmHg 86%
    21:00 +15°C° 0.4 mm 2 mps 734 mmHg 86%
    22:00 +15°C° 0.4 mm 2 mps 734 mmHg 87%
    23:00 +15°C° 0.2 mm 2 mps 734 mmHg 87%

    Tomorrow, 1 May, Monday

    Time Temperature Precipitation Wind Pressure Humidity
    00:00 +14°C° 0.2 mm 2 mps 734 mmHg 87%
    01:00 +14°C° 0.2 mm 2 mps 734 mmHg 87%
    02:00 +14°C° 0.1 mm 2 mps 734 mmHg 88%
    03:00 +13°C° 0.1 mm 2 mps 734 mmHg 88%
    04:00 +13°C° 0.1 mm 2 mps 734 mmHg 89%
    05:00 +15°C° 0 mm 1 mps 735 mmHg 84%
    06:00 +16°C° 0 mm 1 mps 735 mmHg 79%
    07:00 +19°C° 0 mm 1 mps 735 mmHg 75%
    08:00 +21°C° 0 mm 1 mps 735 mmHg 68%
    09:00 +22°C° 0 mm 1 mps 735 mmHg 62%
    10:00 +24°C° 0 mm 2 mps 735 mmHg 55%
    11:00 +24°C° 0.3 mm 2 mps 735 mmHg 56%
    12:00 +24°C° 0.3 mm 2 mps 735 mmHg 57%
    13:00 +24°C° 0.3 mm 3 mps 735 mmHg 58%
    14:00 +24°C° 0.4 mm 3 mps 735 mmHg 61%
    15:00 +22°C° 0.4 mm 3 mps 735 mmHg 64%
    16:00 +22°C° 0.4 mm 3 mps 735 mmHg 67%
    17:00 +20°C° 0.1 mm 2 mps 735 mmHg 75%
    18:00 +17°C° 0.1 mm 2 mps 735 mmHg 84%
    19:00 +15°C° 0.1 mm 1 mps 735 mmHg 93%
    20:00 +15°C° 0 mm 1 mps 736 mmHg 93%
    21:00 +14°C° 0 mm 1 mps 736 mmHg 94%
    22:00 +12°C° 0 mm 0 mps 736 mmHg 94%
    23:00 +12°C° 0 mm 0 mps 736 mmHg 94%

    Day after tomorrow, 2 May, Tuesday

    Time Temperature Precipitation Wind Pressure Humidity
    00:00 +12°C° 0 mm 0 mps 736 mmHg 94%
    01:00 +11°C° 0 mm 0 mps 736 mmHg 94%
    02:00 +11°C° 0 mm 0 mps 736 mmHg 94%
    03:00 +11°C° 0 mm 0 mps 737 mmHg 94%
    04:00 +11°C° 0 mm 1 mps 737 mmHg 94%
    05:00 +13°C° 0 mm 0 mps 737 mmHg 87%
    06:00 +15°C° 0 mm 0 mps 737 mmHg 80%
    07:00 +18°C° 0 mm 0 mps 737 mmHg 73%
    08:00 +21°C° 0 mm 1 mps 737 mmHg 65%
    09:00 +23°C° 0 mm 1 mps 738 mmHg 57%
    10:00 +25°C° 0 mm 2 mps 738 mmHg 48%
    11:00 +25°C° 0 mm 2 mps 738 mmHg 46%
    12:00 +25°C° 0 mm 2 mps 738 mmHg 44%
    13:00 +26°C° 0 mm 3 mps 737 mmHg 42%
    14:00 +25°C° 0 mm 3 mps 737 mmHg 44%
    15:00 +25°C° 0 mm 3 mps 737 mmHg 46%
    16:00 +24°C° 0 mm 3 mps 737 mmHg 47%
    17:00 +20°C° 0 mm 2 mps 737 mmHg 59%
    18:00 +17°C° 0 mm 2 mps 737 mmHg 71%
    19:00 +14°C° 0 mm 1 mps 737 mmHg 82%
    20:00 +14°C° 0 mm 1 mps 737 mmHg 82%
    21:00 +14°C° 0 mm 1 mps 738 mmHg 82%
    22:00 +13°C° 0 mm 1 mps 738 mmHg 82%
    23:00 +13°C° 0 mm 1 mps 738 mmHg 83%

    3 May, Wednesday

    Time Temperature Precipitation Wind Pressure Humidity
    00:00 +13°C° 0 mm 1 mps 738 mmHg 83%
    01:00 +12°C° 0 mm 1 mps 738 mmHg 83%
    02:00 +12°C° 0 mm 1 mps 737 mmHg 84%
    03:00 +12°C° 0 mm 1 mps 737 mmHg 84%
    04:00 +12°C° 0 mm 1 mps 737 mmHg 84%
    05:00 +14°C° 0 mm 1 mps 738 mmHg 75%
    06:00 +16°C° 0 mm 0 mps 738 mmHg 66%
    07:00 +19°C° 0 mm 0 mps 738 mmHg 56%
    08:00 +22°C° 0 mm 1 mps 738 mmHg 52%
    09:00 +24°C° 0 mm 1 mps 738 mmHg 48%
    10:00 +25°C° 0 mm 1 mps 738 mmHg 44%
    11:00 +25°C° 0.1 mm 2 mps 738 mmHg 43%
    12:00 +26°C° 0.1 mm 2 mps 737 mmHg 42%
    13:00 +26°C° 0.1 mm 3 mps 737 mmHg 41%
    14:00 +25°C° 0.1 mm 3 mps 737 mmHg 43%
    15:00 +25°C° 0.1 mm 2 mps 737 mmHg 44%
    16:00 +24°C° 0.1 mm 2 mps 736 mmHg 46%
    17:00 +20°C° 0 mm 2 mps 736 mmHg 58%
    18:00 +18°C° 0 mm 1 mps 736 mmHg 71%
    19:00 +15°C° 0 mm 1 mps 736 mmHg 83%
    20:00 +14°C° 0 mm 1 mps 737 mmHg 83%
    21:00 +14°C° 0 mm 1 mps 737 mmHg 83%
    22:00 +13°C° 0 mm 1 mps 737 mmHg 84%
    23:00 +13°C° 0 mm 1 mps 737 mmHg 83%

    4 May, Thursday

    Time Temperature Precipitation Wind Pressure Humidity
    00:00 +12°C° 0 mm 0 mps 736 mmHg 82%
    01:00 +11°C° 0 mm 0 mps 736 mmHg 81%
    02:00 +11°C° 0 mm 0 mps 736 mmHg 82%
    03:00 +11°C° 0 mm 0 mps 736 mmHg 83%
    04:00 +10°C° 0 mm 0 mps 736 mmHg 84%
    05:00 +13°C° 0 mm 0 mps 736 mmHg 75%
    06:00 +15°C° 0 mm 0 mps 736 mmHg 65%
    07:00 +20°C° 0 mm 1 mps 736 mmHg 56%
    08:00 +21°C° 0 mm 1 mps 736 mmHg 51%
    09:00 +23°C° 0 mm 1 mps 736 mmHg 47%
    10:00 +24°C° 0 mm 2 mps 736 mmHg 42%
    11:00 +24°C° 0 mm 2 mps 736 mmHg 42%
    12:00 +25°C° 0 mm 3 mps 736 mmHg 43%
    13:00 +25°C° 0 mm 3 mps 735 mmHg 43%
    14:00 +24°C° 0 mm 3 mps 735 mmHg 46%
    15:00 +23°C° 0 mm 2 mps 735 mmHg 49%
    16:00 +23°C° 0 mm 2 mps 735 mmHg 51%
    17:00 +19°C° 0 mm 2 mps 735 mmHg 63%
    18:00 +18°C° 0 mm 1 mps 735 mmHg 74%
    19:00 +14°C° 0 mm 1 mps 735 mmHg 85%
    20:00 +13°C° 0 mm 1 mps 736 mmHg 86%
    21:00 +13°C° 0 mm 1 mps 736 mmHg 87%
    22:00 +12°C° 0 mm 1 mps 736 mmHg 87%
    23:00 +12°C° 0 mm 1 mps 736 mmHg 88%

    5 May, Friday

    Time Temperature Precipitation Wind Pressure Humidity
    00:00 +12°C° 0 mm 1 mps 736 mmHg 89%
    01:00 +11°C° 0 mm 1 mps 736 mmHg 89%
    02:00 +11°C° 0 mm 1 mps 736 mmHg 89%
    03:00 +10°C° 0 mm 1 mps 735 mmHg 88%
    04:00 +10°C° 0 mm 1 mps 735 mmHg 88%
    05:00 +13°C° 0 mm 1 mps 736 mmHg 78%
    06:00 +15°C° 0 mm 1 mps 736 mmHg 68%
    07:00 +19°C° 0 mm 1 mps 736 mmHg 58%
    08:00 +20°C° 0 mm 1 mps 736 mmHg 54%
    09:00 +20°C° 0 mm 2 mps 736 mmHg 50%
    10:00 +21°C° 0 mm 2 mps 736 mmHg 46%
    11:00 +23°C° 0.1 mm 2 mps 735 mmHg 47%
    12:00 +23°C° 0.1 mm 2 mps 735 mmHg 48%
    13:00 +22°C° 0.1 mm 3 mps 735 mmHg 49%
    14:00 +21°C° 0.1 mm 3 mps 735 mmHg 52%
    15:00 +21°C° 0.1 mm 3 mps 735 mmHg 55%
    16:00 +20°C° 0.1 mm 3 mps 735 mmHg 58%
    17:00 +18°C° 0 mm 3 mps 735 mmHg 69%
    18:00 +15°C° 0 mm 2 mps 735 mmHg 80%
    19:00 +13°C° 0 mm 2 mps 735 mmHg 91%
    20:00 +13°C° 0 mm 2 mps 735 mmHg 93%
    21:00 +12°C° 0 mm 1 mps 736 mmHg 94%
    22:00 +11°C° 0 mm 1 mps 736 mmHg 95%
    23:00 +11°C° 0 mm 1 mps 736 mmHg 95%
    Show more